Time,TemperatureF,DewpointF,PressureIn,WindDirection,WindDirectionDegrees,WindSpeedMPH,WindSpeedGustMPH,Humidity,HourlyPrecipIn,Conditions,Clouds,dailyrainin,SolarRadiationWatts/m^2,SoftwareType,DateUTC
2013-03-08 00:03:00,38.7,30.0,30.21,East,94,3.0,6.0,70,0.00,,,0.00,0,weatherlink.com 1.10,2013-03-08 06:03:00,
2013-03-08 00:18:00,38.6,30.0,30.21,East,88,2.0,6.0,70,0.00,,,0.00,0,weatherlink.com 1.10,2013-03-08 06:18:00,
2013-03-08 00:33:00,38.4,30.0,30.21,ENE,74,3.0,5.0,71,0.00,,,0.00,0,weatherlink.com 1.10,2013-03-08 06:33:00,
2013-03-08 00:48:00,38.4,29.0,30.21,East,89,3.0,8.0,70,0.00,,,0.00,0,weatherlink.com 1.10,2013-03-08 06:48:00,
2013-03-08 01:03:00,38.5,29.0,30.21,East,92,6.0,6.0,70,0.00,,,0.00,0,weatherlink.com 1.10,2013-03-08 07:03:00,
2013-03-08 01:18:00,38.5,29.0,30.21,East,92,3.0,7.0,70,0.00,,,0.00,0,weatherlink.com 1.10,2013-03-08 07:18:00,
2013-03-08 01:33:00,38.8,29.0,30.22,East,90,1.0,6.0,69,0.00,,,0.00,0,weatherlink.com 1.10,2013-03-08 07:33:00,
2013-03-08 01:48:00,38.6,29.0,30.22,ENE,63,2.0,4.0,69,0.00,,,0.00,0,weatherlink.com 1.10,2013-03-08 07:48:00,
2013-03-08 02:03:00,38.7,30.0,30.22,ENE,71,4.0,4.0,70,0.00,,,0.00,0,weatherlink.com 1.10,2013-03-08 08:03:00,
2013-03-08 02:18:00,38.6,30.0,30.21,ENE,71,1.0,4.0,70,0.00,,,0.00,0,weatherlink.com 1.10,2013-03-08 08:18:00,
2013-03-08 02:33:00,38.9,29.0,30.21,East,94,2.0,6.0,69,0.00,,,0.00,0,weatherlink.com 1.10,2013-03-08 08:33:00,
2013-03-08 02:48:00,39.5,30.0,30.21,ESE,102,4.0,8.0,68,0.00,,,0.00,0,weatherlink.com 1.10,2013-03-08 08:48:00,
2013-03-08 03:03:00,40.0,30.0,30.20,SE,125,2.0,8.0,68,0.00,,,0.00,0,weatherlink.com 1.10,2013-03-08 09:03:00,
2013-03-08 03:18:00,40.8,31.0,30.20,SE,129,4.0,10.0,67,0.00,,,0.00,0,weatherlink.com 1.10,2013-03-08 09:18:00,
2013-03-08 03:33:00,41.3,31.0,30.20,ESE,108,1.0,10.0,66,0.00,,,0.00,0,weatherlink.com 1.10,2013-03-08 09:33:00,
2013-03-08 03:48:00,41.3,31.0,30.19,SE,145,6.0,10.0,66,0.00,,,0.00,0,weatherlink.com 1.10,2013-03-08 09:48:00,
2013-03-08 04:03:00,41.3,31.0,30.19,SE,134,2.0,10.0,67,0.00,,,0.00,0,weatherlink.com 1.10,2013-03-08 10:03:00,
2013-03-08 04:18:00,41.2,31.0,30.18,ENE,78,4.0,9.0,67,0.00,,,0.00,0,weatherlink.com 1.10,2013-03-08 10:18:00,
2013-03-08 04:33:00,41.2,31.0,30.18,ESE,121,7.0,9.0,68,0.00,,,0.00,0,weatherlink.com 1.10,2013-03-08 10:33:00,
2013-03-08 04:48:00,41.2,31.0,30.18,SE,130,5.0,11.0,68,0.00,,,0.00,0,weatherlink.com 1.10,2013-03-08 10:48:00,
2013-03-08 05:03:00,41.1,31.0,30.18,ESE,117,4.0,11.0,68,0.00,,,0.00,0,weatherlink.com 1.10,2013-03-08 11:03:00,
2013-03-08 05:18:00,40.8,31.0,30.18,ESE,108,3.0,7.0,69,0.00,,,0.00,0,weatherlink.com 1.10,2013-03-08 11:18:00,
2013-03-08 05:33:00,40.5,31.0,30.19,SE,138,3.0,7.0,70,0.00,,,0.00,0,weatherlink.com 1.10,2013-03-08 11:33:00,
2013-03-08 05:48:00,40.4,32.0,30.20,ESE,117,2.0,9.0,71,0.00,,,0.00,0,weatherlink.com 1.10,2013-03-08 11:48:00,
2013-03-08 06:03:00,40.4,32.0,30.19,ESE,113,1.0,11.0,71,0.00,,,0.00,0,weatherlink.com 1.10,2013-03-08 12:03:00,
2013-03-08 06:18:00,40.4,32.0,30.19,ESE,119,2.0,7.0,71,0.00,,,0.00,0,weatherlink.com 1.10,2013-03-08 12:18:00,
2013-03-08 06:33:00,40.5,32.0,30.19,ESE,112,4.0,9.0,71,0.00,,,0.00,0,weatherlink.com 1.10,2013-03-08 12:33:00,
2013-03-08 06:48:00,40.5,32.0,30.19,ESE,122,2.0,11.0,72,0.00,,,0.00,12,weatherlink.com 1.10,2013-03-08 12:48:00,
2013-03-08 07:03:00,40.5,32.0,30.19,East,98,1.0,8.0,72,0.00,,,0.00,28,weatherlink.com 1.10,2013-03-08 13:03:00,
2013-03-08 07:18:00,40.6,32.0,30.18,SE,129,0.0,8.0,72,0.00,,,0.00,63,weatherlink.com 1.10,2013-03-08 13:18:00,
2013-03-08 07:33:00,41.2,32.0,30.18,ENE,67,7.0,10.0,71,0.00,,,0.00,98,weatherlink.com 1.10,2013-03-08 13:33:00,
2013-03-08 07:48:00,41.6,33.0,30.18,ESE,109,2.0,8.0,71,0.00,,,0.00,135,weatherlink.com 1.10,2013-03-08 13:48:00,
2013-03-08 08:03:00,42.5,33.0,30.18,ESE,111,2.0,10.0,70,0.00,,,0.00,167,weatherlink.com 1.10,2013-03-08 14:03:00,
2013-03-08 08:18:00,42.9,33.0,30.19,ESE,105,3.0,8.0,69,0.00,,,0.00,144,weatherlink.com 1.10,2013-03-08 14:18:00,
2013-03-08 08:33:00,43.1,34.0,30.20,SE,142,10.0,12.0,69,0.00,,,0.00,264,weatherlink.com 1.10,2013-03-08 14:33:00,
2013-03-08 08:48:00,43.5,34.0,30.19,ESE,117,2.0,12.0,68,0.00,,,0.00,176,weatherlink.com 1.10,2013-03-08 14:48:00,
2013-03-08 09:03:00,43.9,34.0,30.18,ESE,117,4.0,11.0,68,0.00,,,0.00,209,weatherlink.com 1.10,2013-03-08 15:03:00,
2013-03-08 09:18:00,44.4,34.0,30.18,ESE,103,1.0,11.0,66,0.00,,,0.00,260,weatherlink.com 1.10,2013-03-08 15:18:00,
2013-03-08 09:33:00,46.1,35.0,30.17,ESE,115,5.0,11.0,65,0.00,,,0.00,455,weatherlink.com 1.10,2013-03-08 15:33:00,
2013-03-08 09:48:00,47.1,35.0,30.17,ESE,113,5.0,13.0,62,0.00,,,0.00,390,weatherlink.com 1.10,2013-03-08 15:48:00,
2013-03-08 10:03:00,47.9,36.0,30.18,ESE,113,5.0,13.0,63,0.00,,,0.00,501,weatherlink.com 1.10,2013-03-08 16:03:00,
2013-03-08 10:18:00,48.9,36.0,30.18,ESE,118,2.0,14.0,61,0.00,,,0.00,545,weatherlink.com 1.10,2013-03-08 16:18:00,
2013-03-08 10:34:00,50.6,37.0,30.17,SE,142,5.0,14.0,59,0.00,,,0.00,571,weatherlink.com 1.10,2013-03-08 16:34:00,
2013-03-08 10:49:00,51.9,37.0,30.16,East,88,2.0,11.0,57,0.00,,,0.00,733,weatherlink.com 1.10,2013-03-08 16:49:00,
2013-03-08 11:04:00,52.4,37.0,30.16,ESE,114,5.0,13.0,57,0.00,,,0.00,647,weatherlink.com 1.10,2013-03-08 17:04:00,
2013-03-08 11:19:00,53.0,37.0,30.16,East,92,6.0,13.0,56,0.00,,,0.00,666,weatherlink.com 1.10,2013-03-08 17:19:00,
2013-03-08 11:34:00,54.1,39.0,30.16,ENE,67,7.0,10.0,56,0.00,,,0.00,649,weatherlink.com 1.10,2013-03-08 17:34:00,
2013-03-08 11:49:00,55.1,39.0,30.16,East,84,2.0,14.0,56,0.00,,,0.00,701,weatherlink.com 1.10,2013-03-08 17:49:00,
2013-03-08 12:04:00,56.1,40.0,30.15,ESE,103,7.0,10.0,55,0.00,,,0.00,777,weatherlink.com 1.10,2013-03-08 18:04:00,
2013-03-08 12:19:00,55.8,40.0,30.16,East,100,6.0,12.0,55,0.00,,,0.00,394,weatherlink.com 1.10,2013-03-08 18:19:00,
2013-03-08 12:34:00,56.2,40.0,30.15,East,89,0.0,13.0,56,0.00,,,0.00,360,weatherlink.com 1.10,2013-03-08 18:34:00,
2013-03-08 12:49:00,55.6,40.0,30.14,ESE,122,1.0,10.0,57,0.00,,,0.00,369,weatherlink.com 1.10,2013-03-08 18:49:00,
2013-03-08 13:04:00,56.7,41.0,30.12,East,84,5.0,12.0,57,0.00,,,0.00,406,weatherlink.com 1.10,2013-03-08 19:04:00,
2013-03-08 13:19:00,56.2,41.0,30.11,East,86,6.0,14.0,57,0.00,,,0.00,369,weatherlink.com 1.10,2013-03-08 19:19:00,
2013-03-08 13:34:00,56.8,42.0,30.11,SE,142,2.0,14.0,58,0.00,,,0.00,555,weatherlink.com 1.10,2013-03-08 19:34:00,
2013-03-08 13:49:00,58.0,42.0,30.10,East,86,3.0,13.0,56,0.00,,,0.00,387,weatherlink.com 1.10,2013-03-08 19:49:00,
2013-03-08 14:04:00,57.5,42.0,30.09,SE,127,4.0,13.0,57,0.00,,,0.00,239,weatherlink.com 1.10,2013-03-08 20:04:00,
2013-03-08 14:19:00,57.6,42.0,30.09,SE,135,5.0,10.0,57,0.00,,,0.00,186,weatherlink.com 1.10,2013-03-08 20:19:00,
2013-03-08 14:34:00,57.5,43.0,30.08,East,101,6.0,13.0,58,0.00,,,0.00,137,weatherlink.com 1.10,2013-03-08 20:34:00,
2013-03-08 14:49:00,57.4,42.0,30.07,East,82,6.0,16.0,57,0.00,,,0.00,95,weatherlink.com 1.10,2013-03-08 20:49:00,
2013-03-08 15:04:00,56.6,42.0,30.06,East,80,3.0,12.0,59,0.00,,,0.00,139,weatherlink.com 1.10,2013-03-08 21:04:00,
2013-03-08 15:19:00,55.5,41.0,30.06,East,79,7.0,11.0,59,0.00,,,0.00,105,weatherlink.com 1.10,2013-03-08 21:19:00,
2013-03-08 15:34:00,54.8,41.0,30.05,East,83,3.0,13.0,60,0.00,,,0.00,113,weatherlink.com 1.10,2013-03-08 21:34:00,
2013-03-08 15:49:00,54.1,40.0,30.05,SE,138,9.0,13.0,60,0.00,,,0.00,116,weatherlink.com 1.10,2013-03-08 21:49:00,
2013-03-08 16:04:00,54.1,40.0,30.05,ENE,78,3.0,13.0,59,0.00,,,0.00,104,weatherlink.com 1.10,2013-03-08 22:04:00,
2013-03-08 16:19:00,54.1,40.0,30.04,SE,128,8.0,12.0,59,0.00,,,0.00,155,weatherlink.com 1.10,2013-03-08 22:19:00,
2013-03-08 16:34:00,53.9,40.0,30.03,ESE,107,5.0,12.0,59,0.00,,,0.00,77,weatherlink.com 1.10,2013-03-08 22:34:00,
2013-03-08 16:49:00,53.2,39.0,30.02,East,88,8.0,18.0,59,0.00,,,0.00,47,weatherlink.com 1.10,2013-03-08 22:49:00,
2013-03-08 17:04:00,52.8,39.0,30.02,ESE,104,5.0,12.0,60,0.00,,,0.00,33,weatherlink.com 1.10,2013-03-08 23:04:00,
2013-03-08 17:19:00,52.8,39.0,30.03,East,80,7.0,15.0,60,0.00,,,0.00,23,weatherlink.com 1.10,2013-03-08 23:19:00,
2013-03-08 17:34:00,52.9,40.0,30.03,East,93,6.0,10.0,61,0.00,,,0.00,14,weatherlink.com 1.10,2013-03-08 23:34:00,
2013-03-08 17:49:00,53.1,40.0,30.02,East,85,5.0,10.0,61,0.00,,,0.00,9,weatherlink.com 1.10,2013-03-08 23:49:00,
2013-03-08 18:04:00,53.2,40.0,30.03,ENE,62,7.0,12.0,61,0.00,,,0.00,0,weatherlink.com 1.10,2013-03-09 00:04:00,
2013-03-08 18:19:00,53.1,40.0,30.02,East,98,6.0,11.0,62,0.00,,,0.00,0,weatherlink.com 1.10,2013-03-09 00:19:00,
2013-03-08 18:34:00,53.0,40.0,30.03,ENE,78,3.0,10.0,62,0.00,,,0.00,0,weatherlink.com 1.10,2013-03-09 00:34:00,
2013-03-08 18:49:00,52.8,40.0,30.04,East,101,1.0,7.0,63,0.00,,,0.00,0,weatherlink.com 1.10,2013-03-09 00:49:00,
2013-03-08 19:04:00,52.9,41.0,30.05,ESE,117,1.0,8.0,64,0.00,,,0.00,0,weatherlink.com 1.10,2013-03-09 01:04:00,
2013-03-08 19:19:00,52.8,41.0,30.04,SE,136,0.0,3.0,64,0.00,,,0.00,0,weatherlink.com 1.10,2013-03-09 01:19:00,
2013-03-08 19:35:00,52.7,41.0,30.03,East,91,2.0,7.0,65,0.00,,,0.00,0,weatherlink.com 1.10,2013-03-09 01:35:00,
2013-03-08 19:50:00,53.3,41.0,30.03,ESE,109,4.0,9.0,63,0.00,,,0.00,0,weatherlink.com 1.10,2013-03-09 01:50:00,
2013-03-08 20:05:00,53.5,41.0,30.02,East,96,5.0,11.0,62,0.00,,,0.00,0,weatherlink.com 1.10,2013-03-09 02:05:00,
2013-03-08 20:20:00,53.4,40.0,30.03,ESE,109,8.0,11.0,62,0.00,,,0.00,0,weatherlink.com 1.10,2013-03-09 02:20:00,
2013-03-08 20:35:00,52.9,41.0,30.02,East,95,1.0,10.0,64,0.00,,,0.00,0,weatherlink.com 1.10,2013-03-09 02:35:00,
2013-03-08 20:50:00,52.3,41.0,30.03,East,98,5.0,10.0,65,0.00,,,0.00,0,weatherlink.com 1.10,2013-03-09 02:50:00,
2013-03-08 21:05:00,52.3,40.0,30.02,ESE,112,2.0,9.0,64,0.00,,,0.00,0,weatherlink.com 1.10,2013-03-09 03:05:00,
2013-03-08 21:20:00,52.4,40.0,30.03,East,88,3.0,10.0,63,0.00,,,0.00,0,weatherlink.com 1.10,2013-03-09 03:20:00,
2013-03-08 21:35:00,52.4,40.0,30.02,ESE,105,3.0,11.0,63,0.00,,,0.00,0,weatherlink.com 1.10,2013-03-09 03:35:00,
2013-03-08 21:50:00,52.1,40.0,30.02,ESE,108,4.0,13.0,63,0.00,,,0.00,0,weatherlink.com 1.10,2013-03-09 03:50:00,
2013-03-08 22:05:00,51.9,40.0,30.02,SSE,151,3.0,10.0,63,0.00,,,0.00,0,weatherlink.com 1.10,2013-03-09 04:05:00,
2013-03-08 22:20:00,51.8,40.0,30.02,ESE,109,3.0,10.0,64,0.00,,,0.00,0,weatherlink.com 1.10,2013-03-09 04:20:00,
2013-03-08 22:35:00,51.5,40.0,30.01,ESE,112,3.0,10.0,64,0.00,,,0.00,0,weatherlink.com 1.10,2013-03-09 04:35:00,
2013-03-08 22:50:00,51.2,40.0,30.00,East,96,3.0,8.0,65,0.00,,,0.00,0,weatherlink.com 1.10,2013-03-09 04:50:00,
2013-03-08 23:05:00,50.8,40.0,30.00,East,97,6.0,10.0,66,0.00,,,0.00,0,weatherlink.com 1.10,2013-03-09 05:05:00,
2013-03-08 23:20:00,50.6,40.0,29.98,ENE,64,4.0,11.0,66,0.00,,,0.00,0,weatherlink.com 1.10,2013-03-09 05:20:00,
2013-03-08 23:35:00,50.3,40.0,29.97,ESE,103,7.0,9.0,67,0.00,,,0.00,0,weatherlink.com 1.10,2013-03-09 05:35:00,
2013-03-08 23:50:00,50.2,40.0,29.97,SE,144,3.0,9.0,67,0.00,,,0.00,0,weatherlink.com 1.10,2013-03-09 05:50:00,